Date,TemperatureHighF,TemperatureAvgF,TemperatureLowF,DewpointHighF,DewpointAvgF,DewpointLowF,HumidityHigh,HumidityAvg,HumidityLow,PressureMaxIn,PressureMinIn,WindSpeedMaxMPH,WindSpeedAvgMPH,GustSpeedMaxMPH,PrecipitationSumIn
2013-9-1,79,69,60,62,58,50,92,71,49,29.90,29.79,12,1,15,0.32
2013-9-2,89,73,56,63,55,47,90,57,23,29.90,29.72,10,1,11,0.00
2013-9-3,94,78,64,59,54,50,75,45,23,29.80,29.69,18,-13,23,0.00
2013-9-4,92,76,66,62,55,51,69,49,27,29.85,29.76,8,1,10,0.00
2013-9-5,94,76,63,62,54,49,72,48,25,29.90,29.77,11,2,13,0.00
2013-9-6,97,78,61,60,52,45,67,43,18,29.83,29.67,13,2,18,0.00
2013-9-7,96,78,60,57,50,39,73,42,16,29.79,29.64,15,2,19,0.00
2013-9-8,92,74,58,57,51,48,74,48,23,29.70,29.53,12,2,20,0.00
2013-9-9,84,66,58,62,54,49,94,69,35,29.83,29.56,18,3,28,0.85
2013-9-10,65,60,58,62,58,57,98,93,82,30.02,29.78,9,2,12,0.48
2013-9-11,69,62,60,65,60,58,97,95,82,30.02,29.96,13,-22,15,0.96
2013-9-12,62,60,58,62,59,57,97,96,93,30.09,30.00,15,3,21,1.07
2013-9-13,78,63,58,66,60,56,97,88,55,30.01,29.68,8,1,15,0.47
2013-9-14,75,64,58,65,58,52,98,82,47,29.82,29.65,13,1,13,0.01
2013-9-15,61,58,55,57,55,53,96,92,81,30.12,29.81,18,3,20,0.23
2013-9-16,74,62,54,60,56,52,97,82,56,30.10,29.86,13,-26,15,0.02
2013-9-17,84,67,50,59,49,40,92,58,21,29.88,29.57,12,2,13,0.00
2013-9-18,84,70,60,60,48,41,62,46,29,29.63,29.48,23,4,32,0.00
2013-9-19,67,60,50,49,45,38,78,58,42,30.01,29.61,14,-10,15,0.00
2013-9-20,74,58,47,52,46,42,86,66,37,30.04,29.88,8,1,9,0.00
2013-9-21,82,65,48,56,45,40,83,53,24,29.89,29.58,12,-38,15,0.00
2013-9-22,80,64,53,58,48,39,89,57,35,29.58,29.32,17,2,22,0.09
2013-9-23,65,57,49,51,40,31,94,58,32,29.91,29.32,29,5,37,0.41
2013-9-24,77,58,39,46,38,30,85,52,23,30.02,29.69,8,1,11,0.00
2013-9-25,83,62,41,56,42,31,81,51,19,29.69,29.25,13,1,18,0.00
2013-9-26,69,57,44,51,44,37,86,64,38,29.58,29.35,11,-12,16,0.00
2013-9-27,52,47,40,50,45,38,94,92,80,29.96,29.56,11,3,17,0.23
2013-9-28,69,52,36,40,33,26,93,52,26,30.11,29.96,15,3,25,0.00
2013-9-29,75,59,41,42,35,28,70,43,18,30.02,29.74,12,2,13,0.00
2013-9-30,83,66,54,52,41,32,64,42,23,29.75,29.54,11,1,12,0.00